TimePDT,TemperatureF,Dew PointF,Humidity,Sea Level PressureIn,VisibilityMPH,Wind Direction,Wind SpeedMPH,Gust SpeedMPH,PrecipitationIn,Events,Conditions,WindDirDegrees,DateUTC
12:55 AM,51.1,33.1,50,29.92,10.0,Calm,Calm,-,N/A,,Clear,0,2013-07-08 07:55:00
1:55 AM,51.1,34.0,52,29.91,10.0,Calm,Calm,-,N/A,,Clear,0,2013-07-08 08:55:00
2:55 AM,50.0,35.1,57,29.92,10.0,Calm,Calm,-,N/A,,Clear,0,2013-07-08 09:55:00
3:55 AM,46.0,33.1,61,29.94,10.0,Calm,Calm,-,N/A,,Clear,0,2013-07-08 10:55:00
4:55 AM,46.9,33.1,59,29.95,10.0,Calm,Calm,-,N/A,,Clear,0,2013-07-08 11:55:00
5:55 AM,41.0,30.9,67,29.98,10.0,Calm,Calm,-,N/A,,Clear,0,2013-07-08 12:55:00
6:55 AM,51.1,34.0,52,29.98,10.0,Calm,Calm,-,N/A,,Clear,0,2013-07-08 13:55:00
7:55 AM,61.0,37.9,42,29.98,10.0,Calm,Calm,-,N/A,,Clear,0,2013-07-08 14:55:00
8:55 AM,68.0,36.0,31,29.99,10.0,Calm,Calm,-,N/A,,Clear,0,2013-07-08 15:55:00
9:55 AM,75.0,35.1,23,29.98,10.0,Calm,Calm,-,N/A,,Clear,0,2013-07-08 16:55:00
10:55 AM,80.1,30.9,17,29.97,10.0,Variable,5.8,-,N/A,,Clear,0,2013-07-08 17:55:00
11:55 AM,82.0,28.0,14,29.96,10.0,East,5.8,-,N/A,,Clear,100,2013-07-08 18:55:00
12:55 PM,86.0,28.0,12,29.96,10.0,WNW,9.2,-,N/A,,Clear,300,2013-07-08 19:55:00
1:55 PM,87.1,21.9,9,29.96,10.0,NNW,9.2,18.4,N/A,,Clear,330,2013-07-08 20:55:00
2:55 PM,90.0,24.1,9,29.95,10.0,WSW,11.5,16.1,N/A,,Clear,250,2013-07-08 21:55:00
3:55 PM,90.0,26.1,10,29.95,10.0,West,8.1,19.6,N/A,,Clear,280,2013-07-08 22:55:00
4:55 PM,90.0,27.0,10,29.94,10.0,WNW,11.5,-,N/A,,Clear,290,2013-07-08 23:55:00
5:55 PM,89.1,28.9,12,29.96,10.0,West,11.5,21.9,N/A,,Clear,280,2013-07-09 00:55:00
6:55 PM,86.0,30.0,13,29.96,10.0,West,16.1,20.7,N/A,,Clear,270,2013-07-09 01:55:00
7:55 PM,82.0,30.0,15,29.96,10.0,West,11.5,-,N/A,,Clear,270,2013-07-09 02:55:00
8:55 PM,73.0,32.0,22,29.99,10.0,WSW,6.9,-,N/A,,Clear,250,2013-07-09 03:55:00
9:55 PM,70.0,30.0,23,30.01,10.0,WSW,8.1,-,N/A,,Clear,250,2013-07-09 04:55:00
10:55 PM,64.9,32.0,29,30.03,10.0,Calm,Calm,-,N/A,,Clear,0,2013-07-09 05:55:00
11:55 PM,61.0,34.0,36,30.04,10.0,SE,3.5,-,N/A,,Clear,130,2013-07-09 06:55:00